This is the latest recevied weather packets stored in our database for station/object DB0MOD. If no packets are shown the sender has not sent any weather packets the latest 10 day(s).
| Time | Temp. | Humidity | Pressure | Rain* | Wind** | Luminosity | Snow |
|---|---|---|---|---|---|---|---|
| 1777802050 | 27.22° C | 35% | 1016.9 hPa | 0 mm | - | - | - |
| 1777801750 | 27.22° C | 34% | 1016.9 hPa | 0 mm | - | - | - |
| 1777801450 | 27.22° C | 34% | 1016.9 hPa | 0 mm | - | - | - |
| 1777801151 | 26.67° C | 35% | 1016.9 hPa | 0 mm | - | - | - |
| 1777800851 | 26.67° C | 34% | 1016.9 hPa | 0 mm | - | - | - |
| 1777800550 | 27.22° C | 32% | 1016.9 hPa | 0 mm | - | - | - |
| 1777800250 | 27.22° C | 33% | 1016.9 hPa | 0 mm | - | - | - |
| 1777799951 | 27.22° C | 32% | 1016.9 hPa | 0 mm | - | - | - |
| 1777799651 | 26.67° C | 34% | 1016.7 hPa | 0 mm | - | - | - |
| 1777799350 | 26.11° C | 35% | 1016.7 hPa | 0 mm | - | - | - |
| 1777799050 | 25.56° C | 35% | 1016.6 hPa | 0 mm | - | - | - |
| 1777798751 | 24.44° C | 37% | 1016.6 hPa | 0 mm | - | - | - |
| 1777798451 | 22.78° C | 37% | 1016.5 hPa | 0 mm | - | - | - |
| 1777798151 | 22.78° C | 37% | 1016.6 hPa | 0 mm | - | - | - |
| 1777797851 | 23.33° C | 37% | 1016.7 hPa | 0 mm | - | - | - |
| 1777797550 | 23.33° C | 37% | 1016.5 hPa | 0 mm | - | - | - |
| 1777797251 | 23.33° C | 38% | 1016.4 hPa | 0 mm | - | - | - |
| 1777796954 | 23.89° C | 38% | 1016.4 hPa | 0 mm | - | - | - |
| 1777796950 | 23.89° C | 38% | 1016.4 hPa | 0 mm | - | - | - |
| 1777796650 | 23.89° C | 39% | 1016.3 hPa | 0 mm | - | - | - |
| 1777796350 | 22.78° C | 39% | 1016.1 hPa | 0 mm | - | - | - |
| 1777796051 | 22.78° C | 39% | 1016.2 hPa | 0 mm | - | - | - |
| 1777795750 | 22.78° C | 40% | 1016 hPa | 0 mm | - | - | - |
| 1777795450 | 22.22° C | 42% | 1015.8 hPa | 0 mm | - | - | - |
| 1777795151 | 21.67° C | 42% | 1015.7 hPa | 0 mm | - | - | - |
* Rain latest hour (hover to see other rain measurements)
** Current wind speed in m/s (hover to see current wind gust speed)